date,time,SUV Intensity [MED/Hr],UV Index,Daily total [MED],Since Last [MED]
30/03/2022,00:06:19,0.000,0.0,0.0,0.0
30/03/2022,00:07:19,0.000,0.0,0.0,0.0
30/03/2022,00:08:18,0.000,0.0,0.0,0.0
30/03/2022,00:09:27,0.000,0.0,0.0,0.0
30/03/2022,00:10:18,0.000,0.0,0.0,0.0
30/03/2022,00:11:19,0.000,0.0,0.0,0.0
30/03/2022,00:12:18,0.000,0.0,0.0,0.0
30/03/2022,00:13:19,0.000,0.0,0.0,0.0
30/03/2022,00:14:27,0.000,0.0,0.0,0.0
30/03/2022,00:15:19,0.000,0.0,0.0,0.0
30/03/2022,00:16:19,0.000,0.0,0.0,0.0
30/03/2022,00:17:27,0.000,0.0,0.0,0.0
30/03/2022,00:18:19,0.000,0.0,0.0,0.0
30/03/2022,00:19:19,0.000,0.0,0.0,0.0
30/03/2022,00:20:19,0.000,0.0,0.0,0.0
30/03/2022,00:21:18,0.000,0.0,0.0,0.0
30/03/2022,00:22:19,-0.001,0.0,0.0,0.0
30/03/2022,00:23:18,0.000,0.0,0.0,0.0
30/03/2022,00:24:18,0.000,0.0,0.0,0.0
30/03/2022,00:25:19,0.000,0.0,0.0,0.0
30/03/2022,00:26:18,0.000,0.0,0.0,0.0
30/03/2022,00:27:19,0.000,0.0,0.0,0.0
30/03/2022,00:28:19,0.000,0.0,0.0,0.0
30/03/2022,00:29:19,0.000,0.0,0.0,0.0
30/03/2022,00:30:27,0.000,0.0,0.0,0.0
30/03/2022,00:31:19,-0.001,0.0,0.0,0.0
30/03/2022,00:32:19,0.000,0.0,0.0,0.0
30/03/2022,00:33:19,0.000,0.0,0.0,0.0
30/03/2022,00:34:19,0.000,0.0,0.0,0.0
30/03/2022,00:35:19,0.000,0.0,0.0,0.0
30/03/2022,00:36:19,0.000,0.0,0.0,0.0
30/03/2022,00:37:18,0.000,0.0,0.0,0.0
30/03/2022,00:38:19,0.000,0.0,0.0,0.0
30/03/2022,00:39:19,0.000,0.0,0.0,0.0
30/03/2022,00:40:27,0.000,0.0,0.0,0.0
30/03/2022,00:42:19,0.000,0.0,0.0,0.0
30/03/2022,00:43:18,0.000,0.0,0.0,0.0
30/03/2022,00:44:17,-0.001,0.0,0.0,0.0
30/03/2022,00:45:19,0.000,0.0,0.0,0.0
30/03/2022,00:46:19,0.000,0.0,0.0,0.0
30/03/2022,00:47:19,0.000,0.0,0.0,0.0
30/03/2022,00:48:19,0.000,0.0,0.0,0.0
30/03/2022,00:49:19,0.000,0.0,0.0,0.0
30/03/2022,00:50:28,0.000,0.0,0.0,0.0
30/03/2022,00:51:19,0.000,0.0,0.0,0.0
30/03/2022,00:52:19,0.000,0.0,0.0,0.0
30/03/2022,00:53:27,0.000,0.0,0.0,0.0
30/03/2022,00:55:20,0.000,0.0,0.0,0.0
30/03/2022,00:56:19,0.000,0.0,0.0,0.0
30/03/2022,00:57:18,-0.000,0.0,0.0,0.0
30/03/2022,00:58:19,0.000,0.0,0.0,0.0
30/03/2022,00:59:19,0.000,0.0,0.0,0.0
30/03/2022,01:00:19,0.000,0.0,0.0,0.0
30/03/2022,01:01:20,0.000,0.0,0.0,0.0
30/03/2022,01:02:19,0.000,0.0,0.0,0.0
30/03/2022,01:03:27,0.000,0.0,0.0,0.0
30/03/2022,01:04:18,0.000,0.0,0.0,0.0
30/03/2022,01:05:20,0.000,0.0,0.0,0.0
30/03/2022,01:06:19,0.000,0.0,0.0,0.0
30/03/2022,01:07:19,0.000,0.0,0.0,0.0
30/03/2022,01:08:19,0.000,0.0,0.0,0.0
30/03/2022,01:09:19,0.000,0.0,0.0,0.0
30/03/2022,01:10:18,0.000,0.0,0.0,0.0
30/03/2022,01:11:19,0.000,0.0,0.0,0.0
30/03/2022,01:12:19,-0.001,0.0,0.0,0.0
30/03/2022,01:13:19,0.000,0.0,0.0,0.0
30/03/2022,01:14:19,0.000,0.0,0.0,0.0
30/03/2022,01:15:19,0.000,0.0,0.0,0.0
30/03/2022,01:16:19,0.000,0.0,0.0,0.0
30/03/2022,01:17:19,0.000,0.0,0.0,0.0
30/03/2022,01:18:18,0.000,0.0,0.0,0.0
30/03/2022,01:19:19,0.000,0.0,0.0,0.0
30/03/2022,01:20:20,-0.001,0.0,0.0,0.0
30/03/2022,01:21:19,0.000,0.0,0.0,0.0
30/03/2022,01:22:19,0.000,0.0,0.0,0.0
30/03/2022,01:23:19,0.000,0.0,0.0,0.0
30/03/2022,01:32:22,0.000,0.0,0.0,0.0
30/03/2022,01:33:19,0.000,0.0,0.0,0.0
30/03/2022,01:34:19,0.000,0.0,0.0,0.0
30/03/2022,01:35:19,-0.001,0.0,0.0,0.0
30/03/2022,01:36:19,-0.001,0.0,0.0,0.0
30/03/2022,01:37:27,-0.000,0.0,0.0,0.0
30/03/2022,01:38:19,0.000,0.0,0.0,0.0
30/03/2022,01:39:19,-0.001,0.0,0.0,0.0
30/03/2022,01:40:19,0.000,0.0,0.0,0.0
30/03/2022,01:41:19,-0.000,0.0,0.0,0.0
30/03/2022,01:42:19,0.000,0.0,0.0,0.0
30/03/2022,01:43:19,0.000,0.0,0.0,0.0
30/03/2022,01:44:19,0.000,0.0,0.0,0.0
30/03/2022,01:45:19,0.000,0.0,0.0,0.0
30/03/2022,01:46:19,0.001,0.0,0.0,0.0
30/03/2022,01:47:19,0.000,0.0,0.0,0.0
30/03/2022,01:48:19,0.000,0.0,0.0,0.0
30/03/2022,01:49:18,0.000,0.0,0.0,0.0
30/03/2022,01:50:19,0.000,0.0,0.0,0.0
30/03/2022,01:51:19,0.000,0.0,0.0,0.0
30/03/2022,01:52:19,-0.001,0.0,0.0,0.0
30/03/2022,01:53:19,0.000,0.0,0.0,0.0
30/03/2022,01:54:19,0.000,0.0,0.0,0.0
30/03/2022,01:55:19,0.000,0.0,0.0,0.0
30/03/2022,01:56:18,0.000,0.0,0.0,0.0
30/03/2022,01:57:20,-0.000,0.0,0.0,0.0
30/03/2022,01:58:19,0.000,0.0,0.0,0.0
30/03/2022,01:59:19,0.000,0.0,0.0,0.0
30/03/2022,02:00:19,-0.001,0.0,0.0,0.0
30/03/2022,02:01:19,0.000,0.0,0.0,0.0
30/03/2022,02:02:19,0.000,0.0,0.0,0.0
30/03/2022,02:03:19,0.000,0.0,0.0,0.0
30/03/2022,02:04:18,0.000,0.0,0.0,0.0
30/03/2022,02:05:19,0.000,0.0,0.0,0.0
30/03/2022,02:06:19,0.000,0.0,0.0,0.0
30/03/2022,02:07:19,0.000,0.0,0.0,0.0
30/03/2022,02:08:28,0.000,0.0,0.0,0.0
30/03/2022,02:10:19,0.000,0.0,0.0,0.0
30/03/2022,02:11:19,0.000,0.0,0.0,0.0
30/03/2022,02:12:19,0.000,0.0,0.0,0.0
30/03/2022,02:13:19,0.000,0.0,0.0,0.0
30/03/2022,02:14:19,0.000,0.0,0.0,0.0
30/03/2022,02:15:19,0.000,0.0,0.0,0.0
30/03/2022,02:16:19,0.000,0.0,0.0,0.0
30/03/2022,02:17:19,0.000,0.0,0.0,0.0
30/03/2022,02:18:27,0.000,0.0,0.0,0.0
30/03/2022,02:20:20,0.000,0.0,0.0,0.0
30/03/2022,02:21:19,0.000,0.0,0.0,0.0
30/03/2022,02:22:19,0.000,0.0,0.0,0.0
30/03/2022,02:23:19,0.000,0.0,0.0,0.0
30/03/2022,02:24:19,0.000,0.0,0.0,0.0
30/03/2022,02:25:19,0.000,0.0,0.0,0.0
30/03/2022,02:26:19,0.000,0.0,0.0,0.0
30/03/2022,02:27:19,0.000,0.0,0.0,0.0
30/03/2022,02:28:28,0.000,0.0,0.0,0.0
30/03/2022,02:30:20,0.000,0.0,0.0,0.0
30/03/2022,02:31:19,0.000,0.0,0.0,0.0
30/03/2022,02:32:21,0.000,0.0,0.0,0.0
30/03/2022,02:33:19,0.000,0.0,0.0,0.0
30/03/2022,02:34:19,0.000,0.0,0.0,0.0
30/03/2022,02:35:19,0.000,0.0,0.0,0.0
30/03/2022,02:36:19,0.000,0.0,0.0,0.0
30/03/2022,02:37:20,0.000,0.0,0.0,0.0
30/03/2022,02:38:19,0.000,0.0,0.0,0.0
30/03/2022,02:39:19,0.000,0.0,0.0,0.0
30/03/2022,02:40:19,0.000,0.0,0.0,0.0
30/03/2022,02:41:19,-0.001,0.0,0.0,0.0
30/03/2022,02:42:19,0.000,0.0,0.0,0.0
30/03/2022,02:43:19,-0.000,0.0,0.0,0.0
30/03/2022,02:44:19,0.000,0.0,0.0,0.0
30/03/2022,02:45:19,0.000,0.0,0.0,0.0
30/03/2022,02:46:19,0.000,0.0,0.0,0.0
30/03/2022,02:47:19,0.000,0.0,0.0,0.0
30/03/2022,02:48:19,0.000,0.0,0.0,0.0
30/03/2022,02:49:28,0.000,0.0,0.0,0.0
30/03/2022,02:51:20,0.000,0.0,0.0,0.0
30/03/2022,02:52:21,0.000,0.0,0.0,0.0
30/03/2022,02:53:19,0.000,0.0,0.0,0.0
30/03/2022,02:54:20,0.000,0.0,0.0,0.0
30/03/2022,02:55:19,0.000,0.0,0.0,0.0
30/03/2022,02:56:19,0.000,0.0,0.0,0.0
30/03/2022,02:57:20,0.000,0.0,0.0,0.0
30/03/2022,02:58:19,0.000,0.0,0.0,0.0
30/03/2022,02:59:27,0.000,0.0,0.0,0.0
30/03/2022,03:00:18,0.000,0.0,0.0,0.0
30/03/2022,03:01:19,0.000,0.0,0.0,0.0
30/03/2022,03:02:19,0.000,0.0,0.0,0.0
30/03/2022,03:03:19,0.000,0.0,0.0,0.0
30/03/2022,03:04:19,0.000,0.0,0.0,0.0
30/03/2022,03:05:19,0.000,0.0,0.0,0.0
30/03/2022,03:06:19,0.000,0.0,0.0,0.0
30/03/2022,03:07:19,0.000,0.0,0.0,0.0
30/03/2022,03:08:19,0.000,0.0,0.0,0.0
30/03/2022,03:09:19,0.000,0.0,0.0,0.0
30/03/2022,03:10:19,0.000,0.0,0.0,0.0
30/03/2022,03:11:19,0.000,0.0,0.0,0.0
30/03/2022,03:12:27,0.000,0.0,0.0,0.0
30/03/2022,03:13:18,0.000,0.0,0.0,0.0
30/03/2022,03:14:19,0.000,0.0,0.0,0.0
30/03/2022,03:15:19,0.000,0.0,0.0,0.0
30/03/2022,03:16:19,0.000,0.0,0.0,0.0
30/03/2022,03:17:19,0.000,0.0,0.0,0.0
30/03/2022,03:18:19,0.000,0.0,0.0,0.0
30/03/2022,03:19:19,0.000,0.0,0.0,0.0
30/03/2022,03:20:19,0.000,0.0,0.0,0.0
30/03/2022,03:21:36,0.000,0.0,0.0,0.0
30/03/2022,03:23:19,0.000,0.0,0.0,0.0
30/03/2022,03:24:19,0.000,0.0,0.0,0.0
30/03/2022,03:25:19,0.000,0.0,0.0,0.0
30/03/2022,03:26:19,0.000,0.0,0.0,0.0
30/03/2022,03:27:20,0.000,0.0,0.0,0.0
30/03/2022,03:28:19,0.000,0.0,0.0,0.0
30/03/2022,03:29:19,0.000,0.0,0.0,0.0
30/03/2022,03:30:19,0.000,0.0,0.0,0.0
30/03/2022,03:31:19,0.000,0.0,0.0,0.0
30/03/2022,03:32:19,0.000,0.0,0.0,0.0
30/03/2022,03:33:19,0.000,0.0,0.0,0.0
30/03/2022,03:34:19,0.000,0.0,0.0,0.0
30/03/2022,03:35:19,0.000,0.0,0.0,0.0
30/03/2022,03:36:19,0.000,0.0,0.0,0.0
30/03/2022,03:37:20,0.000,0.0,0.0,0.0
30/03/2022,03:38:19,0.000,0.0,0.0,0.0
30/03/2022,03:39:19,0.000,0.0,0.0,0.0
30/03/2022,03:40:28,0.000,0.0,0.0,0.0
30/03/2022,03:41:19,0.000,0.0,0.0,0.0
30/03/2022,03:43:20,0.000,0.0,0.0,0.0
30/03/2022,03:44:20,0.000,0.0,0.0,0.0
30/03/2022,03:45:21,0.000,0.0,0.0,0.0
30/03/2022,03:46:28,0.000,0.0,0.0,0.0
30/03/2022,03:47:18,0.000,0.0,0.0,0.0
30/03/2022,03:48:19,0.000,0.0,0.0,0.0
30/03/2022,03:49:20,0.000,0.0,0.0,0.0
30/03/2022,03:50:19,0.000,0.0,0.0,0.0
30/03/2022,03:51:19,0.000,0.0,0.0,0.0
30/03/2022,03:52:19,0.000,0.0,0.0,0.0
30/03/2022,03:53:27,0.000,0.0,0.0,0.0
30/03/2022,03:55:20,0.000,0.0,0.0,0.0
30/03/2022,03:56:18,0.000,0.0,0.0,0.0
30/03/2022,03:57:19,0.000,0.0,0.0,0.0
30/03/2022,03:58:19,0.000,0.0,0.0,0.0
30/03/2022,03:59:19,0.000,0.0,0.0,0.0
30/03/2022,04:00:19,0.000,0.0,0.0,0.0
30/03/2022,04:01:21,0.000,0.0,0.0,0.0
30/03/2022,04:02:19,0.000,0.0,0.0,0.0
30/03/2022,04:03:29,0.000,0.0,0.0,0.0
30/03/2022,04:05:20,0.000,0.0,0.0,0.0
30/03/2022,04:06:19,0.000,0.0,0.0,0.0
30/03/2022,04:07:19,0.000,0.0,0.0,0.0
30/03/2022,04:08:19,0.000,0.0,0.0,0.0
30/03/2022,04:09:28,0.000,0.0,0.0,0.0
30/03/2022,04:10:18,0.000,0.0,0.0,0.0
30/03/2022,04:11:19,0.000,0.0,0.0,0.0
30/03/2022,04:12:19,0.000,0.0,0.0,0.0
30/03/2022,04:13:19,0.000,0.0,0.0,0.0
30/03/2022,04:14:20,0.000,0.0,0.0,0.0
30/03/2022,04:15:19,0.000,0.0,0.0,0.0
30/03/2022,04:16:19,0.000,0.0,0.0,0.0
30/03/2022,04:17:28,0.000,0.0,0.0,0.0
30/03/2022,04:19:20,0.000,0.0,0.0,0.0
30/03/2022,04:20:19,0.000,0.0,0.0,0.0
30/03/2022,04:21:19,0.000,0.0,0.0,0.0
30/03/2022,04:22:19,0.000,0.0,0.0,0.0
30/03/2022,04:23:19,0.000,0.0,0.0,0.0
30/03/2022,04:24:27,0.000,0.0,0.0,0.0
30/03/2022,04:25:26,0.000,0.0,0.0,0.0
30/03/2022,04:26:20,0.000,0.0,0.0,0.0
30/03/2022,04:27:18,0.000,0.0,0.0,0.0
30/03/2022,04:28:28,0.000,0.0,0.0,0.0
30/03/2022,04:29:20,0.000,0.0,0.0,0.0
30/03/2022,04:30:19,0.000,0.0,0.0,0.0
30/03/2022,04:31:20,0.000,0.0,0.0,0.0
30/03/2022,04:32:19,0.000,0.0,0.0,0.0
30/03/2022,04:33:20,0.000,0.0,0.0,0.0
30/03/2022,04:34:19,0.000,0.0,0.0,0.0
30/03/2022,04:35:21,0.000,0.0,0.0,0.0
30/03/2022,04:36:20,0.000,0.0,0.0,0.0
30/03/2022,04:37:19,-0.000,0.0,0.0,0.0
30/03/2022,04:38:20,0.000,0.0,0.0,0.0
30/03/2022,04:39:19,0.000,0.0,0.0,0.0
30/03/2022,04:40:20,0.000,0.0,0.0,0.0
30/03/2022,04:41:19,0.000,0.0,0.0,0.0
30/03/2022,04:42:19,0.000,0.0,0.0,0.0
30/03/2022,04:43:19,0.000,0.0,0.0,0.0
30/03/2022,04:44:19,0.000,0.0,0.0,0.0
30/03/2022,04:45:27,0.000,0.0,0.0,0.0
30/03/2022,04:46:18,0.000,0.0,0.0,0.0
30/03/2022,04:47:20,0.000,0.0,0.0,0.0
30/03/2022,04:48:27,0.000,0.0,0.0,0.0
30/03/2022,04:50:20,0.000,0.0,0.0,0.0
30/03/2022,04:51:28,0.000,0.0,0.0,0.0
30/03/2022,04:52:19,0.000,0.0,0.0,0.0
30/03/2022,04:53:19,0.000,0.0,0.0,0.0
30/03/2022,04:54:19,0.001,0.0,0.0,0.0
30/03/2022,04:55:19,0.000,0.0,0.0,0.0
30/03/2022,04:56:19,0.000,0.0,0.0,0.0
30/03/2022,04:57:19,0.000,0.0,0.0,0.0
30/03/2022,04:58:19,0.000,0.0,0.0,0.0
30/03/2022,04:59:27,0.000,0.0,0.0,0.0
30/03/2022,05:01:20,0.000,0.0,0.0,0.0
30/03/2022,05:02:19,0.000,0.0,0.0,0.0
30/03/2022,05:03:19,0.000,0.0,0.0,0.0
30/03/2022,05:04:20,0.000,0.0,0.0,0.0
30/03/2022,05:05:19,0.000,0.0,0.0,0.0
30/03/2022,05:06:20,0.000,0.0,0.0,0.0
30/03/2022,05:07:20,0.000,0.0,0.0,0.0
30/03/2022,05:08:20,0.000,0.0,0.0,0.0
30/03/2022,05:09:28,0.000,0.0,0.0,0.0
30/03/2022,05:10:19,0.000,0.0,0.0,0.0
30/03/2022,05:11:19,0.000,0.0,0.0,0.0
30/03/2022,05:12:20,0.000,0.0,0.0,0.0
30/03/2022,05:13:20,0.000,0.0,0.0,0.0
30/03/2022,05:14:19,0.000,0.0,0.0,0.0
30/03/2022,05:15:20,0.001,0.0,0.0,0.0
30/03/2022,05:16:19,0.000,0.0,0.0,0.0
30/03/2022,05:17:20,0.000,0.0,0.0,0.0
30/03/2022,05:18:19,0.000,0.0,0.0,0.0
30/03/2022,05:19:19,0.000,0.0,0.0,0.0
30/03/2022,05:20:19,0.000,0.0,0.0,0.0
30/03/2022,05:21:19,0.001,0.0,0.0,0.0
30/03/2022,05:22:28,0.000,0.0,0.0,0.0
30/03/2022,05:23:19,0.000,0.0,0.0,0.0
30/03/2022,05:24:20,0.000,0.0,0.0,0.0
30/03/2022,05:25:27,0.000,0.0,0.0,0.0
30/03/2022,05:27:21,0.000,0.0,0.0,0.0
30/03/2022,05:28:20,0.000,0.0,0.0,0.0
30/03/2022,05:29:19,0.000,0.0,0.0,0.0
30/03/2022,05:30:18,0.000,0.0,0.0,0.0
30/03/2022,05:31:19,0.000,0.0,0.0,0.0
30/03/2022,05:32:20,0.000,0.0,0.0,0.0
30/03/2022,05:33:36,0.000,0.0,0.0,0.0
30/03/2022,05:35:20,0.001,0.0,0.0,0.0
30/03/2022,05:36:28,0.001,0.0,0.0,0.0
30/03/2022,05:38:20,0.001,0.0,0.0,0.0
30/03/2022,05:39:20,0.001,0.0,0.0,0.0
30/03/2022,05:40:19,0.001,0.0,0.0,0.0
30/03/2022,05:41:19,0.001,0.0,0.0,0.0
30/03/2022,05:42:20,0.002,0.0,0.0,0.0
30/03/2022,05:43:27,0.000,0.0,0.0,0.0
30/03/2022,05:44:18,0.001,0.0,0.0,0.0
30/03/2022,05:45:21,0.001,0.0,0.0,0.0
30/03/2022,05:46:27,0.001,0.0,0.0,0.0
30/03/2022,05:47:19,0.001,0.0,0.0,0.0
30/03/2022,05:48:19,0.001,0.0,0.0,0.0
30/03/2022,05:49:19,0.001,0.0,0.0,0.0
30/03/2022,05:50:19,0.001,0.0,0.0,0.0
30/03/2022,05:51:20,0.001,0.0,0.0,0.0
30/03/2022,05:52:19,0.001,0.0,0.0,0.0
30/03/2022,05:53:20,0.001,0.0,0.0,0.0
30/03/2022,05:54:20,0.001,0.0,0.0,0.0
30/03/2022,05:55:20,0.001,0.0,0.0,0.0
30/03/2022,05:56:19,0.002,0.0,0.0,0.0
30/03/2022,05:57:19,0.001,0.0,0.0,0.0
30/03/2022,05:58:20,0.002,0.0,0.0,0.0
30/03/2022,05:59:19,0.002,0.0,0.0,0.0
30/03/2022,06:00:19,0.002,0.0,0.0,0.0
30/03/2022,06:01:19,0.001,0.0,0.0,0.0
30/03/2022,06:02:19,0.002,0.0,0.0,0.0
30/03/2022,06:03:20,0.002,0.0,0.0,0.0
30/03/2022,06:04:19,0.001,0.0,0.0,0.0
30/03/2022,06:05:29,0.001,0.0,0.0,0.0
30/03/2022,06:06:19,0.001,0.0,0.0,0.0
30/03/2022,06:07:27,0.002,0.0,0.0,0.0
30/03/2022,06:08:19,0.002,0.0,0.0,0.0
30/03/2022,06:09:20,0.002,0.0,0.0,0.0
30/03/2022,06:10:27,0.001,0.0,0.0,0.0
30/03/2022,06:11:18,0.002,0.0,0.0,0.0
30/03/2022,06:12:20,0.002,0.0,0.0,0.0
30/03/2022,06:13:19,0.003,0.0,0.0,0.0
30/03/2022,06:14:20,0.003,0.0,0.0,0.0
30/03/2022,06:15:19,0.003,0.0,0.0,0.0
30/03/2022,06:16:19,0.003,0.0,0.0,0.0
30/03/2022,06:17:19,0.003,0.0,0.0,0.0
30/03/2022,06:18:19,0.003,0.0,0.0,0.0
30/03/2022,06:19:20,0.002,0.0,0.0,0.0
30/03/2022,06:20:28,0.003,0.0,0.0,0.0
30/03/2022,06:21:19,0.003,0.0,0.0,0.0
30/03/2022,06:22:20,0.003,0.0,0.0,0.0
30/03/2022,06:23:20,0.003,0.0,0.0,0.0
30/03/2022,06:24:19,0.004,0.0,0.0,0.0
30/03/2022,06:25:20,0.003,0.0,0.0,0.0
30/03/2022,06:26:20,0.004,0.0,0.0,0.0
30/03/2022,06:27:20,0.004,0.0,0.0,0.0
30/03/2022,06:28:19,0.004,0.0,0.0,0.0
30/03/2022,06:29:20,0.004,0.0,0.0,0.0
30/03/2022,06:30:19,0.004,0.0,0.0,0.0
30/03/2022,06:31:27,0.004,0.0,0.0,0.0
30/03/2022,06:33:20,0.004,0.0,0.0,0.0
30/03/2022,06:34:18,0.006,0.0,0.0,0.0
30/03/2022,06:35:20,0.005,0.0,0.0,0.0
30/03/2022,06:36:20,0.005,0.0,0.0,0.0
30/03/2022,06:37:20,0.005,0.0,0.0,0.0
30/03/2022,06:38:19,0.005,0.0,0.0,0.0
30/03/2022,06:39:19,0.005,0.0,0.0,0.0
30/03/2022,06:40:21,0.006,0.0,0.0,0.0
30/03/2022,06:41:27,0.005,0.0,0.0,0.0
30/03/2022,06:43:20,0.006,0.0,0.0,0.0
30/03/2022,06:44:20,0.006,0.0,0.0,0.0
30/03/2022,06:45:19,0.007,0.0,0.0,0.0
30/03/2022,06:46:19,0.007,0.0,0.0,0.0
30/03/2022,06:47:19,0.008,0.0,0.0,0.0
30/03/2022,06:48:19,0.008,0.0,0.001,0.001
30/03/2022,06:49:20,0.008,0.0,0.001,0.0
30/03/2022,06:50:20,0.008,0.0,0.001,0.0
30/03/2022,06:51:28,0.008,0.0,0.001,0.0
30/03/2022,06:52:19,0.008,0.0,0.001,0.0
30/03/2022,06:53:19,0.009,0.0,0.001,0.0
30/03/2022,06:54:19,0.009,0.0,0.001,0.0
30/03/2022,06:55:20,0.009,0.0,0.002,0.001
30/03/2022,06:56:20,0.009,0.0,0.002,0.0
30/03/2022,06:57:20,0.010,0.0,0.002,0.0
30/03/2022,06:58:20,0.009,0.0,0.002,0.0
30/03/2022,06:59:19,0.010,0.0,0.002,0.0
30/03/2022,07:00:20,0.011,0.0,0.002,0.0
30/03/2022,07:01:28,0.011,0.0,0.003,0.001
30/03/2022,07:03:29,0.010,0.0,0.003,0.0
30/03/2022,07:04:20,0.011,0.0,0.003,0.0
30/03/2022,07:05:21,0.012,0.0,0.003,0.0
30/03/2022,07:06:19,0.011,0.0,0.003,0.0
30/03/2022,07:07:21,0.012,0.0,0.004,0.001
30/03/2022,07:08:19,0.010,0.0,0.004,0.0
30/03/2022,07:09:19,0.011,0.0,0.004,0.0
30/03/2022,07:10:20,0.011,0.0,0.004,0.0
30/03/2022,07:11:19,0.012,0.0,0.004,0.0
30/03/2022,07:12:28,0.011,0.0,0.005,0.001
30/03/2022,07:14:20,0.013,0.0,0.005,0.0
30/03/2022,07:15:19,0.013,0.0,0.005,0.0
30/03/2022,07:16:20,0.014,0.0,0.005,0.0
30/03/2022,07:17:20,0.015,0.0,0.006,0.001
30/03/2022,07:18:19,0.018,0.0,0.006,0.0
30/03/2022,07:19:19,0.017,0.0,0.006,0.0
30/03/2022,07:20:19,0.018,0.0,0.007,0.001
30/03/2022,07:21:20,0.018,0.0,0.007,0.0
30/03/2022,07:22:28,0.018,0.0,0.007,0.0
30/03/2022,07:23:19,0.018,0.0,0.007,0.0
30/03/2022,07:24:19,0.017,0.0,0.008,0.001
30/03/2022,07:25:19,0.019,0.0,0.008,0.0
30/03/2022,07:26:19,0.019,0.0,0.008,0.0
30/03/2022,07:27:20,0.019,0.0,0.009,0.001
30/03/2022,07:28:21,0.019,0.0,0.009,0.0
30/03/2022,07:29:20,0.019,0.0,0.009,0.0
30/03/2022,07:30:28,0.020,0.0,0.01,0.001
30/03/2022,07:31:19,0.020,0.0,0.01,0.0
30/03/2022,07:32:19,0.019,0.0,0.01,0.0
30/03/2022,07:33:20,0.019,0.0,0.011,0.001
30/03/2022,07:34:20,0.020,0.0,0.011,0.0
30/03/2022,07:35:20,0.021,0.0,0.011,0.0
30/03/2022,07:36:19,0.023,0.0,0.012,0.001
30/03/2022,07:37:20,0.024,0.0,0.012,0.0
30/03/2022,07:38:18,0.022,0.0,0.012,0.0
30/03/2022,07:39:20,0.022,0.0,0.013,0.001
30/03/2022,07:40:20,0.022,0.0,0.013,0.0
30/03/2022,07:41:20,0.022,0.0,0.014,0.001
30/03/2022,07:42:20,0.023,0.0,0.014,0.0
30/03/2022,07:43:28,0.024,0.0,0.014,0.0
30/03/2022,07:45:20,0.025,0.0,0.015,0.001
30/03/2022,07:46:19,0.026,0.0,0.016,0.001
30/03/2022,07:47:19,0.026,0.0,0.016,0.0
30/03/2022,07:48:19,0.026,0.0,0.016,0.0
30/03/2022,07:49:19,0.027,0.0,0.017,0.001
30/03/2022,07:50:20,0.029,0.0,0.017,0.0
30/03/2022,07:51:20,0.032,0.0,0.018,0.001
30/03/2022,07:52:20,0.032,0.0,0.018,0.0
30/03/2022,07:53:28,0.035,0.0,0.019,0.001
30/03/2022,07:55:20,0.039,0.0,0.02,0.001
30/03/2022,07:56:20,0.041,0.0,0.021,0.001
30/03/2022,07:57:19,0.038,0.0,0.022,0.001
30/03/2022,07:58:20,0.037,0.0,0.022,0.0
30/03/2022,07:59:20,0.037,0.0,0.023,0.001
30/03/2022,08:00:19,0.035,0.0,0.023,0.0
30/03/2022,08:01:28,0.038,0.0,0.024,0.001
30/03/2022,08:03:20,0.038,0.0,0.025,0.001
30/03/2022,08:04:20,0.040,0.0,0.026,0.001
30/03/2022,08:05:19,0.042,0.0,0.027,0.001
30/03/2022,08:06:20,0.041,0.0,0.027,0.0
30/03/2022,08:07:20,0.043,0.0,0.028,0.001
30/03/2022,08:08:19,0.045,0.0,0.029,0.001
30/03/2022,08:09:19,0.047,0.0,0.029,0.0
30/03/2022,08:10:20,0.050,0.0,0.03,0.001
30/03/2022,08:11:28,0.054,0.0,0.031,0.001
30/03/2022,08:12:19,0.058,0.0,0.032,0.001
30/03/2022,08:13:20,0.058,0.0,0.033,0.001
30/03/2022,08:14:27,0.057,0.0,0.034,0.001
30/03/2022,08:15:19,0.059,0.0,0.035,0.001
30/03/2022,08:16:20,0.061,0.0,0.036,0.001
30/03/2022,08:17:20,0.056,0.0,0.037,0.001
30/03/2022,08:18:19,0.058,0.0,0.038,0.001
30/03/2022,08:19:07,0.060,0.0,0.039,0.001
30/03/2022,08:20:21,0.058,0.0,0.04,0.001
30/03/2022,08:21:28,0.056,0.0,0.041,0.001
30/03/2022,08:22:20,0.054,0.0,0.042,0.001
30/03/2022,08:23:19,0.054,0.0,0.043,0.001
30/03/2022,08:24:20,0.054,0.0,0.044,0.001
30/03/2022,08:25:20,0.054,0.0,0.044,0.0
30/03/2022,08:26:20,0.057,0.0,0.045,0.001
30/03/2022,08:27:20,0.056,0.0,0.046,0.001
30/03/2022,08:28:19,0.059,0.0,0.047,0.001
30/03/2022,08:29:19,0.063,0.0,0.048,0.001
30/03/2022,08:30:20,0.066,0.0,0.049,0.001
30/03/2022,08:31:20,0.069,0.0,0.05,0.001
30/03/2022,08:32:28,0.070,0.0,0.052,0.002
30/03/2022,08:33:19,0.070,0.0,0.053,0.001
30/03/2022,08:34:19,0.069,0.0,0.054,0.001
30/03/2022,08:35:19,0.068,0.0,0.055,0.001
30/03/2022,08:36:20,0.068,0.0,0.056,0.001
30/03/2022,08:37:19,0.071,0.0,0.057,0.001
30/03/2022,08:38:19,0.069,0.0,0.059,0.002
30/03/2022,08:39:20,0.072,0.0,0.06,0.001
30/03/2022,08:40:20,0.077,0.0,0.061,0.001
30/03/2022,08:41:19,0.084,0.0,0.062,0.001
30/03/2022,08:42:28,0.092,0.0,0.064,0.002
30/03/2022,08:43:19,0.094,0.0,0.065,0.001
30/03/2022,08:44:20,0.100,0.0,0.067,0.002
30/03/2022,08:45:20,0.106,0.0,0.069,0.002
30/03/2022,08:46:20,0.103,0.0,0.07,0.001
30/03/2022,08:47:20,0.103,0.0,0.072,0.002
30/03/2022,08:48:20,0.104,0.0,0.074,0.002
30/03/2022,08:49:23,0.104,0.0,0.076,0.002
30/03/2022,08:50:20,0.109,0.0,0.077,0.001
30/03/2022,08:51:20,0.111,0.0,0.079,0.002
30/03/2022,08:52:20,0.118,0.0,0.081,0.002
30/03/2022,08:53:20,0.123,0.0,0.083,0.002
30/03/2022,08:54:20,0.129,0.0,0.085,0.002
30/03/2022,08:55:28,0.134,0.0,0.088,0.003
30/03/2022,08:57:20,0.136,0.0,0.092,0.004
30/03/2022,08:58:20,0.134,0.0,0.094,0.002
30/03/2022,08:59:20,0.133,0.0,0.096,0.002
30/03/2022,09:00:20,0.127,0.0,0.099,0.003
30/03/2022,09:01:20,0.116,0.0,0.101,0.002
30/03/2022,09:02:20,0.107,0.0,0.102,0.001
30/03/2022,09:03:20,0.105,0.0,0.104,0.002
30/03/2022,09:04:19,0.105,0.0,0.106,0.002
30/03/2022,09:05:19,0.106,0.0,0.108,0.002
30/03/2022,09:06:19,0.108,0.0,0.11,0.002
30/03/2022,09:07:28,0.121,0.0,0.112,0.002
30/03/2022,09:09:20,0.163,0.0,0.116,0.004
30/03/2022,09:10:19,0.178,0.0,0.119,0.003
30/03/2022,09:11:20,0.185,0.0,0.122,0.003
30/03/2022,09:12:20,0.194,0.0,0.125,0.003
30/03/2022,09:13:20,0.193,0.0,0.128,0.003
30/03/2022,09:14:19,0.191,0.0,0.132,0.004
30/03/2022,09:15:20,0.185,0.0,0.135,0.003
30/03/2022,09:16:19,0.176,0.0,0.138,0.003
30/03/2022,09:17:19,0.159,0.0,0.141,0.003
30/03/2022,09:18:19,0.139,0.0,0.143,0.002
30/03/2022,09:19:20,0.128,0.0,0.145,0.002
30/03/2022,09:20:19,0.126,0.0,0.147,0.002
30/03/2022,09:21:19,0.137,0.0,0.149,0.002
30/03/2022,09:22:20,0.150,0.0,0.152,0.003
30/03/2022,09:23:28,0.160,0.0,0.155,0.003
30/03/2022,09:24:19,0.160,0.0,0.157,0.002
30/03/2022,09:25:20,0.149,0.0,0.16,0.003
30/03/2022,09:26:28,0.137,0.0,0.162,0.002
30/03/2022,09:28:21,0.127,0.0,0.167,0.005
30/03/2022,09:29:20,0.118,0.0,0.169,0.002
30/03/2022,09:30:29,0.117,0.0,0.171,0.002
30/03/2022,09:32:20,0.125,0.0,0.175,0.004
30/03/2022,09:33:19,0.130,0.0,0.177,0.002
30/03/2022,09:34:19,0.134,0.0,0.179,0.002
30/03/2022,09:35:20,0.136,0.0,0.181,0.002
30/03/2022,09:36:20,0.138,0.0,0.183,0.002
30/03/2022,09:37:20,0.140,0.0,0.186,0.003
30/03/2022,09:38:19,0.148,0.0,0.188,0.002
30/03/2022,09:39:20,0.148,0.0,0.191,0.003
30/03/2022,09:40:20,0.140,0.0,0.193,0.002
30/03/2022,09:41:20,0.141,0.0,0.195,0.002
30/03/2022,09:42:32,0.144,0.0,0.198,0.003
30/03/2022,09:44:29,0.157,0.0,0.203,0.005
30/03/2022,09:46:22,0.161,0.0,0.208,0.005
30/03/2022,09:47:28,0.153,0.0,0.211,0.003
30/03/2022,09:49:23,0.139,0.0,0.216,0.005
30/03/2022,09:50:28,0.131,0.0,0.218,0.002
30/03/2022,09:51:19,0.127,0.0,0.22,0.002
30/03/2022,09:52:19,0.131,0.0,0.222,0.002
30/03/2022,09:53:19,0.142,0.0,0.224,0.002
30/03/2022,09:54:19,0.156,0.0,0.227,0.003
30/03/2022,09:55:19,0.168,0.0,0.23,0.003
30/03/2022,09:56:20,0.174,0.0,0.233,0.003
30/03/2022,09:57:28,0.171,0.0,0.236,0.003
30/03/2022,09:58:20,0.163,0.0,0.238,0.002
30/03/2022,09:59:19,0.148,0.0,0.241,0.003
30/03/2022,10:00:28,0.132,0.0,0.243,0.002
30/03/2022,10:02:21,0.110,0.0,0.247,0.004
30/03/2022,10:03:20,0.103,0.0,0.249,0.002
30/03/2022,10:04:20,0.101,0.0,0.251,0.002
30/03/2022,10:05:20,0.103,0.0,0.252,0.001
30/03/2022,10:06:19,0.104,0.0,0.254,0.002
30/03/2022,10:07:28,0.104,0.0,0.256,0.002
30/03/2022,10:08:20,0.106,0.0,0.258,0.002
30/03/2022,10:09:19,0.114,0.0,0.259,0.001
30/03/2022,10:10:19,0.117,0.0,0.261,0.002
30/03/2022,10:11:20,0.118,0.0,0.263,0.002
30/03/2022,10:12:20,0.123,0.0,0.265,0.002
30/03/2022,10:13:19,0.131,0.0,0.267,0.002
30/03/2022,10:14:34,0.133,0.0,0.27,0.003
30/03/2022,10:16:21,0.125,0.0,0.274,0.004
30/03/2022,10:17:28,0.122,0.0,0.276,0.002
30/03/2022,10:19:20,0.117,0.0,0.28,0.004
30/03/2022,10:20:19,0.117,0.0,0.282,0.002
30/03/2022,10:21:20,0.120,0.0,0.284,0.002
30/03/2022,10:22:20,0.123,0.0,0.286,0.002
30/03/2022,10:23:20,0.123,0.0,0.288,0.002
30/03/2022,10:24:20,0.122,0.0,0.29,0.002
30/03/2022,10:25:20,0.125,0.0,0.292,0.002
30/03/2022,10:26:19,0.133,0.0,0.294,0.002
30/03/2022,10:27:28,0.136,0.0,0.297,0.003
30/03/2022,10:28:19,0.135,0.0,0.299,0.002
30/03/2022,10:29:20,0.132,0.0,0.301,0.002
30/03/2022,10:30:27,0.132,0.0,0.303,0.002
30/03/2022,10:32:20,0.132,0.0,0.308,0.005
30/03/2022,10:33:20,0.137,0.0,0.31,0.002
30/03/2022,10:34:20,0.138,0.0,0.312,0.002
30/03/2022,10:35:19,0.143,0.0,0.314,0.002
30/03/2022,10:36:20,0.149,0.0,0.317,0.003
30/03/2022,10:37:20,0.152,0.0,0.319,0.002
30/03/2022,10:38:19,0.153,0.0,0.322,0.003
30/03/2022,10:39:19,0.158,0.0,0.325,0.003
30/03/2022,10:40:20,0.167,0.0,0.327,0.002
30/03/2022,10:41:28,0.175,0.0,0.33,0.003
30/03/2022,10:43:20,0.174,0.0,0.336,0.006
30/03/2022,10:44:20,0.174,0.0,0.339,0.003
30/03/2022,10:45:20,0.171,0.0,0.342,0.003
30/03/2022,10:46:20,0.166,0.0,0.344,0.002
30/03/2022,10:47:20,0.160,0.0,0.347,0.003
30/03/2022,10:48:20,0.152,0.0,0.35,0.003
30/03/2022,10:49:20,0.146,0.0,0.352,0.002
30/03/2022,10:50:20,0.144,0.0,0.355,0.003
30/03/2022,10:51:19,0.148,0.0,0.357,0.002
30/03/2022,10:52:20,0.156,0.0,0.36,0.003
30/03/2022,10:53:19,0.168,0.0,0.362,0.002
30/03/2022,10:54:20,0.181,0.0,0.365,0.003
30/03/2022,10:55:20,0.191,0.0,0.368,0.003